Regional Weather Roundup
Issued by NWS

Home | Current Version | Previous Version | Text Only | Print | Product List | Glossary On
Versions: 1 2 3 4 5 6 7 8 9 10 11 12 13 14 15 16 17 18 19 20 21 22 23 24 25 26 27 28 29 30 31 32 33 34 35 36 37 38 39 40 41 42 43 44 45 46 47 48 49 50
000
ASUS45 KREV 050510
RWRNV
NEVADA REGIONAL WEATHER ROUNDUP
NATIONAL WEATHER SERVICE RENO NV
1000 PM PDT TUE AUG 04 2015

NOTE: "FAIR" INDICATES FEW OR NO CLOUDS BELOW 12,000 FEET WITH NO
SIGNIFICANT WEATHER AND/OR OBSTRUCTIONS TO VISIBILITY.

NVZ001-003-004-050600-
WESTERN NEVADA

CITY           SKY/WX    TMP DP  RH WIND       PRES   REMARKS
RENO           MOCLDY    73  42  32 N5        30.07R
CARSON CITY    CLOUDY    75  41  29 W9        30.08R
MINDEN         CLOUDY    70  41  35 E3        30.08R
SLIDE MTN        N/A     50  37  62 SW7         N/A
PYRAMID LAKE     N/A     79 N/A N/A N2          N/A
FALLON         CLOUDY    80  39  23 W13       29.98R
LOVELOCK       MOCLDY    80  35  19 NW21      29.96R
HAWTHORNE      CLEAR     82  43  24 W12G18    29.99R
$$

NVZ002-CAZ072-073-050600-
NORTHERN AND CENTRAL SIERRA

CITY           SKY/WX    TMP DP  RH WIND       PRES   REMARKS
S. LAKE TAHOE  MOCLDY    59  45  59 CALM      30.19R
TRUCKEE        MOCLDY    61  46  59 CALM      30.19R
SQUAW VLY 8000   N/A     54  37  54 S9          N/A
SUSANVILLE     PTCLDY    68  37  32 W7        30.08R
BLUE CANYON    PTCLDY    62  48  60 CALM      30.17R
BRIDGEPORT     FAIR      61  35  37 N3        30.21R
$$

NVZ030-031-036-050600-
NORTHERN NEVADA

CITY           SKY/WX    TMP DP  RH WIND       PRES   REMARKS
ELKO           CLOUDY    81  36  19 W13       30.02R
WINNEMUCCA     CLOUDY    74  38  27 W5        29.98
WENDOVER       CLOUDY    81  45  28 NE16G25   29.97R
$$

NVZ035-037-050600-
CENTRAL NEVADA

CITY           SKY/WX    TMP DP  RH WIND       PRES   REMARKS
ELY            CLOUDY    76  27  16 S9        30.13S
EUREKA           N/A     77  29  17 SE5       30.09R
$$

NVZ013-014-050600-
SOUTH CENTRAL NEVADA

CITY           SKY/WX    TMP DP  RH WIND       PRES   REMARKS
TONOPAH        PTCLDY    73  26  17 E5        30.08R
$$

NVZ017-020-022-050600-
SOUTHERN NEVADA

CITY           SKY/WX    TMP DP  RH WIND       PRES   REMARKS
LAS VEGAS      PTCLDY    95  31  10 SW7       29.82R
N. LAS VEGAS   CLEAR     96  35  11 SW13      29.83S
NELLIS AFB     CLEAR     95  36  12 SW7       29.81R
HENDERSON      CLEAR     91  34  13 SW14      29.90R
MERCURY        PTCLDY    89  37  16 SW14G23   29.93R
$$


USA.gov is the U.S. government's official web portal to all federal, state and local government web resources and services.